Theta_e
320 321 322 322 321 321 325 326 330 329 324 330 331 333 333 332 335 337 336 336 336 337 337 338 341 341 338 333 331 336 339 341 341 339 338 337 336 334 334 334 333 333 332 332
320 321 322 322 322 324 327 325 324 322 330 331 331 332 332 332 334 335 335 335 335 338 337 335 335 335 336 334 336 332 333 327 334 337 341 339 336 334 334 333 333 333 333 331
322 322 322 323 324 325 324 326 326 326 327 328 329 327 328 330 330 333 336 334 334 339 338 335 332 335 331 329 329 328 328 327 330 332 339 336 335 332 334 327 325 323 322 322
321 320 322 323 325 324 328 326 327 329 324 330 327 329 327 326 327 327 325 337 337 338 335 335 332 329 328 327 328 330 328 328 328 329 333 335 336 332 327 326 323 322 322 321
322 323 324 327 327 326 330 327 328 327 326 329 330 332 327 324 326 326 336 340 338 335 332 335 336 335 334 333 330 331 332 334 331 326 329 334 333 328 325 323 324 322 320 319
322 322 324 329 328 329 328 326 323 325 325 331 329 329 327 326 325 328 335 335 337 336 336 334 335 334 331 331 330 331 333 333 334 331 334 331 329 325 323 321 320 319 318 317
327 328 328 326 329 327 324 324 327 329 333 332 326 329 327 327 327 331 333 332 330 330 332 330 329 330 331 329 326 327 330 333 332 330 326 324 322 321 320 319 318 316 315 314
329 332 330 331 330 330 329 325 327 332 334 331 327 330 329 326 325 327 331 330 330 329 327 329 329 327 326 326 326 327 326 324 323 322 322 322 320 318 317 315 314 312 310 310
330 333 330 332 330 328 331 333 328 327 325 328 328 327 328 328 329 328 328 328 328 328 327 327 327 326 324 323 322 323 322 322 322 320 318 316 314 312 311 310 309 309 308 308
329 333 332 333 330 328 327 330 329 326 328 334 330 329 327 330 330 328 328 328 326 324 324 323 324 325 324 323 322 323 321 319 317 316 315 312 310 310 310 308 308 308 308 309
328 329 333 330 331 332 328 331 329 325 323 328 331 330 329 329 329 329 327 326 324 323 323 322 323 323 324 322 322 320 319 318 317 314 311 310 310 309 309 309 308 309 309 309
330 329 334 333 332 332 330 330 325 326 328 327 328 334 328 329 327 326 328 329 324 321 321 322 323 323 323 322 320 319 318 316 313 311 310 310 310 309 309 309 309 309 310 310
328 329 331 331 328 329 333 332 328 325 325 332 331 332 329 330 330 329 328 326 321 320 320 318 320 322 323 322 320 318 316 313 312 311 310 309 310 309 309 310 310 310 310 310
327 326 328 329 327 329 332 332 332 329 329 332 334 334 331 331 330 329 325 322 320 319 319 318 318 320 322 322 320 317 315 312 312 311 310 309 310 309 310 310 310 311 310 311
320 331 330 329 331 333 333 335 333 332 331 331 331 332 330 329 328 327 327 321 319 318 319 320 319 320 321 322 318 316 314 312 311 310 310 310 310 309 310 310 310 310 310 310
326 334 332 332 332 331 333 330 331 332 332 332 332 333 330 328 327 327 324 322 320 318 319 322 322 321 321 318 317 315 313 312 311 310 310 310 310 310 310 311 311 310 310 310
331 328 327 332 331 331 333 335 331 331 329 332 333 329 329 329 327 325 323 321 318 318 318 321 321 320 318 317 316 314 312 312 310 310 310 310 310 310 311 311 311 311 311 310
330 330 328 331 330 332 330 333 333 335 334 331 330 328 327 326 326 324 321 319 317 316 318 321 321 320 318 317 316 315 313 311 310 310 309 309 310 310 310 310 311 311 311 311
323 327 333 332 332 333 334 334 332 333 334 332 330 330 328 326 326 327 321 317 315 316 318 322 321 319 317 317 316 314 312 310 310 310 310 309 310 310 311 310 311 311 311 311
327 324 330 329 333 338 331 333 332 329 334 331 331 330 328 326 328 324 320 318 317 318 322 323 320 318 317 316 315 314 312 310 310 309 309 310 310 310 311 310 311 311 311 311
330 329 330 331 332 331 329 331 330 331 327 331 329 328 327 327 322 320 318 317 317 319 323 321 320 318 317 316 315 314 312 311 311 311 310 309 310 309 310 310 311 310 311 311
332 331 329 328 330 332 327 330 332 325 326 329 327 326 325 323 320 318 316 316 317 320 322 321 320 318 317 316 315 315 313 313 312 311 311 309 309 307 310 306 309 310 309 311
334 329 331 327 327 322 327 325 325 325 328 328 325 324 321 320 320 318 316 315 317 318 322 321 319 317 316 316 315 314 313 313 312 309 309 308 310 308 305 305 305 307 308 308
326 325 324 323 323 326 326 328 326 325 327 325 322 321 320 319 318 317 314 313 316 318 321 322 319 317 316 316 315 313 312 312 310 309 309 309 310 309 308 309 307 307 306 308
321 323 323 324 325 327 328 329 327 328 324 322 321 320 319 318 316 314 312 314 318 319 320 320 320 317 316 315 315 313 312 310 309 309 309 310 310 310 310 310 310 309 307 306
320 321 324 326 323 322 324 327 328 327 324 321 320 320 319 317 315 314 314 319 320 320 320 320 318 316 316 315 315 313 312 312 312 309 310 309 310 310 310 311 311 311 311 309
Wind_Speed
4 6 4 8 2 7 3 4 2 1 5 9 5 8 10 8 6 4 5 2 7 8 7 15 12 8 3 10 14 15 1 1 5 4 12 14 12 14 20 23 24 23 19 17
8 5 9 1 5 3 3 3 5 6 11 9 2 6 3 5 2 2 6 1 6 6 7 7 8 10 15 5 6 9 15 10 9 11 6 7 5 11 16 13 8 9 13 13
4 10 4 2 4 5 2 5 1 6 4 3 5 11 10 6 5 5 6 8 9 10 7 4 8 13 8 4 1 10 14 15 13 9 9 8 10 13 9 5 9 11 9 8
4 7 2 6 3 4 6 7 3 4 5 3 3 1 7 10 11 8 10 7 8 8 5 6 9 12 12 5 12 12 10 14 12 14 16 19 17 6 4 4 6 7 7 8
7 5 3 9 1 3 3 1 14 5 6 6 9 5 7 7 10 8 12 11 8 6 5 6 8 10 12 13 15 16 16 18 18 19 21 19 9 7 7 6 7 7 8 9
4 3 5 2 3 4 2 4 8 4 3 5 6 4 6 5 4 3 4 8 6 5 6 5 4 10 12 17 19 21 20 20 17 21 18 10 8 7 8 11 13 13 13 11
6 6 6 3 6 8 8 8 4 5 5 3 6 7 4 6 6 1 4 5 2 5 6 6 8 15 18 19 21 18 15 15 12 9 14 15 15 14 14 14 15 14 13 14
4 7 8 12 2 5 4 6 5 2 2 2 5 4 3 6 8 7 4 3 4 5 4 5 10 11 11 13 13 14 17 18 17 17 18 17 15 15 14 12 12 12 13 13
5 1 4 1 4 2 1 6 3 6 3 4 1 4 5 7 7 6 7 8 7 5 4 5 8 10 13 14 13 13 15 17 16 17 17 16 14 13 12 12 12 13 13 12
6 3 1 5 1 8 7 4 4 4 3 1 3 3 4 4 4 5 5 3 6 7 8 6 10 10 11 12 11 13 15 16 14 14 14 14 15 14 14 14 13 13 13 10
5 4 4 3 6 1 5 3 5 4 3 4 2 4 1 5 3 5 5 4 5 5 5 6 9 8 8 9 12 14 11 9 11 12 12 12 13 12 13 16 14 14 13 14
2 5 3 2 3 1 0 4 4 5 2 2 3 4 3 2 3 6 6 3 3 5 4 5 5 4 5 8 9 7 7 11 10 9 10 11 12 13 14 15 15 14 16 15
5 3 3 8 6 3 1 2 2 6 4 2 4 4 2 2 5 5 3 4 4 4 4 3 5 2 1 4 6 6 8 8 8 9 11 13 14 17 18 16 16 16 16 16
8 4 6 6 6 3 2 3 3 4 4 4 4 3 6 5 5 3 4 4 4 3 2 3 4 4 1 3 6 6 8 8 9 11 14 14 14 14 16 18 16 16 16 16
5 4 1 3 4 2 3 2 4 3 4 4 4 7 7 8 7 2 3 4 4 2 1 0 2 4 3 3 6 7 7 8 9 12 13 14 14 14 15 17 17 16 17 17
3 1 2 6 3 4 3 7 6 3 4 6 7 1 3 3 2 3 4 5 4 3 2 2 1 4 4 5 7 7 6 7 8 11 10 12 13 15 16 17 17 17 17 18
4 4 3 1 3 3 5 5 2 4 2 7 4 7 5 4 6 6 6 6 6 2 2 3 2 4 5 5 5 6 6 5 8 12 13 12 14 14 15 15 17 17 18 21
4 4 2 1 3 1 4 4 5 7 2 1 3 6 8 5 4 5 5 6 6 4 4 3 3 6 7 6 6 4 4 5 10 12 13 12 15 16 15 15 16 15 15 21
4 4 4 3 2 3 2 2 1 3 2 2 6 5 5 4 4 1 4 5 5 4 5 6 6 8 7 6 5 5 5 9 10 12 12 12 15 15 15 16 15 14 12 13
6 6 5 2 3 6 5 3 1 4 2 4 6 7 7 6 3 4 5 3 3 4 9 9 10 8 5 5 4 5 6 8 10 10 10 10 14 14 13 15 15 13 12 13
4 4 4 2 2 6 6 4 2 4 6 3 6 6 8 5 5 5 8 4 4 5 11 10 10 7 3 4 4 7 6 7 8 10 10 11 11 13 11 12 13 13 12 11
5 5 2 3 2 3 7 4 5 6 3 6 6 8 7 4 5 7 6 4 7 6 11 10 9 5 2 4 2 6 6 7 9 12 11 11 11 12 11 13 9 11 12 11
0 5 5 7 5 4 5 4 4 8 7 7 7 5 8 9 6 7 5 5 6 5 9 8 7 4 1 4 4 6 5 7 9 11 11 10 11 10 13 13 14 12 12 13
2 3 3 3 3 4 5 2 5 6 7 5 6 12 9 8 8 7 6 5 8 6 5 9 8 5 4 4 3 6 4 6 7 11 11 10 10 8 8 11 12 13 11 11
3 2 4 2 4 2 2 4 8 5 6 8 8 9 12 10 8 7 5 7 10 6 4 6 11 9 8 6 2 3 3 5 8 9 9 9 10 9 10 11 11 9 8 8
2 5 4 6 7 5 5 7 7 8 8 10 9 6 7 9 10 11 8 9 9 6 5 6 9 9 9 8 4 2 3 3 5 7 9 10 9 9 11 11 11 10 6 5
Wind_Direction
351 43 302 276 144 212 225 150 117 248 1 70 39 34 24 42 52 66 272 322 74 60 62 48 105 178 233 237 220 215 58 177 237 215 185 194 214 236 252 241 246 270 272 263
10 311 278 150 310 105 105 53 358 18 75 87 10 33 316 60 85 206 251 196 78 67 53 48 120 169 212 261 261 231 242 335 327 287 292 254 251 254 269 252 282 287 278 267
155 257 319 99 110 155 110 99 187 123 130 82 69 25 360 10 8 346 343 92 140 149 136 144 153 188 215 200 315 291 293 294 323 317 315 303 299 280 295 24 21 33 33 24
267 288 49 86 161 109 53 328 324 157 120 148 28 194 11 334 43 30 3 67 137 130 141 178 189 222 226 263 306 326 345 345 330 346 350 341 327 342 63 26 61 36 1 348
267 347 37 68 294 140 128 113 90 58 86 93 4 74 315 347 16 3 5 20 108 125 143 192 234 260 312 311 326 340 328 327 333 316 326 330 330 44 70 55 356 8 16 1
295 285 41 174 66 42 79 83 50 52 75 42 315 108 333 4 315 346 349 32 48 134 194 213 317 338 336 349 350 347 345 324 317 318 327 356 24 56 24 23 27 15 5 355
341 22 329 32 43 18 61 56 6 17 21 195 320 63 344 346 3 66 61 58 22 17 10 16 3 360 346 350 343 336 337 349 359 43 61 59 58 53 42 24 13 5 359 349
65 4 360 332 48 139 34 101 138 147 153 246 356 48 314 355 23 41 45 101 47 40 26 11 10 360 18 44 57 66 65 70 66 62 62 58 48 38 28 14 3 358 352 348
124 271 308 336 15 18 33 46 189 102 11 65 307 92 22 8 40 38 42 44 23 25 34 33 31 58 68 63 59 67 73 73 73 70 63 54 41 28 22 19 15 7 359 360
189 111 60 283 313 34 96 150 32 14 113 112 332 107 182 261 317 329 21 358 29 23 42 48 53 53 60 64 66 79 78 74 70 62 51 43 36 27 27 18 17 17 18 4
130 104 291 1 19 292 15 27 58 113 108 147 167 269 150 200 284 302 268 326 8 46 51 45 55 62 73 72 84 88 74 66 64 56 51 48 39 37 34 32 31 25 19 15
350 117 95 128 240 7 57 148 126 114 288 53 127 269 207 200 292 288 276 320 54 74 65 56 49 92 86 83 100 90 88 78 66 64 59 49 41 34 26 29 30 24 20 16
179 22 43 346 354 5 25 84 109 108 97 184 125 253 138 35 285 263 257 106 88 88 76 42 47 35 112 96 96 97 93 76 66 60 49 38 39 38 36 31 25 26 24 23
95 117 152 183 209 150 236 165 118 101 108 173 205 167 231 211 240 210 50 118 102 73 49 33 28 4 287 60 70 91 85 58 55 50 34 29 31 27 23 20 19 24 22 22
89 117 151 251 250 124 44 307 155 146 156 135 197 171 203 186 210 212 276 145 117 74 153 270 341 353 10 100 97 100 69 48 54 44 38 33 29 31 25 23 31 32 32 26
38 108 123 16 322 24 54 8 105 96 116 73 109 258 131 150 138 288 201 159 164 212 164 123 10 22 57 93 85 93 62 51 52 43 37 34 34 27 22 26 32 34 31 22
75 113 70 337 350 87 22 334 39 99 83 133 153 219 137 165 208 220 183 175 187 187 176 176 74 61 76 80 103 76 55 54 43 34 29 33 24 17 22 26 32 33 31 28
114 90 73 171 26 356 263 39 89 108 32 279 121 154 164 179 201 195 200 177 190 188 187 157 113 113 98 100 106 76 46 41 34 30 28 27 24 17 20 28 28 31 33 38
88 110 75 114 116 296 157 229 230 117 269 201 141 128 173 145 86 329 190 198 195 204 181 164 145 123 114 123 132 104 65 54 32 24 25 25 16 15 20 26 27 29 28 29
66 73 107 100 131 205 238 184 154 98 294 192 157 177 163 133 156 242 177 178 188 201 173 165 159 141 146 157 136 73 48 54 26 23 21 20 20 20 20 26 32 30 29 32
35 21 117 114 163 283 238 204 104 94 240 147 167 184 154 183 203 175 147 188 194 204 182 172 169 166 174 173 116 57 32 29 11 8 6 18 15 14 21 29 40 38 41 47
155 130 157 89 110 262 172 111 160 202 204 164 164 173 174 150 143 130 141 172 188 180 182 185 178 176 214 181 82 46 23 8 7 10 18 19 22 23 30 28 39 38 38 48
76 175 182 174 210 250 219 176 188 168 161 185 161 134 138 150 149 149 161 176 186 164 189 193 185 163 160 159 59 25 23 13 23 26 29 27 20 35 39 40 41 40 40 45
319 135 116 109 262 228 203 111 165 184 160 157 136 142 150 148 155 162 170 186 163 146 170 197 180 177 159 144 71 35 28 24 34 31 30 24 22 30 31 25 29 32 36 42
205 75 137 302 288 65 174 214 169 163 116 109 135 156 162 151 168 166 179 171 156 156 168 196 194 189 180 177 143 54 50 44 40 34 32 26 28 30 26 10 6 7 22 31
177 175 151 215 217 162 217 193 160 140 160 155 142 133 148 166 159 169 168 152 164 172 192 201 192 199 195 207 154 91 25 11 19 35 36 31 28 21 15 14 17 21 11 26